H1 CPF 2 NER 2021 1 11 9 011 01 glonass142 H2 2001801 9142 45358 2021 1 11 0 0 0 2021 1 14 23 45 0 900 1 1 0 0 0 1 H9 10 0 59225 0.00000 0 -10698665.644 4556063.104 -22677694.432 10 0 59225 900.00000 0 -10740298.428 1728078.036 -23047575.462 10 0 59225 1800.00000 0 -10990948.449 -1106951.462 -22968718.039 10 0 59225 2700.00000 0 -11443156.394 -3878970.531 -22442714.853 10 0 59225 3600.00000 0 -12077382.701 -6520672.828 -21479877.159 10 0 59225 4500.00000 0 -12862836.195 -8970060.608 -20099027.703 10 0 59225 5400.00000 0 -13758795.497 -11172781.032 -18327126.732 10 0 59225 6300.00000 0 -14716367.053 -13084141.901 -16198738.735 10 0 59225 7200.00000 0 -15680604.943 -14670723.654 -13755350.866 10 0 59225 8100.00000 0 -16592902.379 -15911521.664 -11044556.789 10 0 59225 9000.00000 0 -17393553.364 -16798572.755 -8119122.378 10 0 59225 9900.00000 0 -18024375.920 -17337041.526 -5035952.116 10 0 59225 10800.00000 0 -18431285.774 -17544764.981 -1854976.855 10 0 59225 11700.00000 0 -18566711.728 -17451276.681 1362014.876 10 0 59225 12600.00000 0 -18391750.759 -17096353.404 4552578.744 10 0 59225 13500.00000 0 -17877972.147 -16528147.272 7654826.012 10 0 59225 14400.00000 0 -17008794.809 -15800983.403 10608620.838 10 0 59225 15300.00000 0 -15780380.193 -14972916.804 13356740.284 10 0 59225 16200.00000 0 -14202003.421 -14103151.953 15845975.005 10 0 59225 17100.00000 0 -12295887.111 -13249433.669 18028149.988 10 0 59225 18000.00000 0 -10096504.746 -12465518.704 19861046.456 10 0 59225 18900.00000 0 -7649382.173 -11798833.628 21309208.214 10 0 59225 19800.00000 0 -5009446.361 -11288416.457 22344618.043 10 0 59225 20700.00000 0 -2238989.085 -10963227.501 22947232.090 10 0 59225 21600.00000 0 594671.342 -10840899.440 23105362.935 10 0 59225 22500.00000 0 3421734.932 -10926978.409 22815904.523 10 0 59225 23400.00000 0 6172567.645 -11214687.701 22084394.921 10 0 59225 24300.00000 0 8780343.839 -11685224.129 20924915.510 10 0 59225 25200.00000 0 11183575.669 -12308575.194 19359828.016 10 0 59225 26100.00000 0 13328425.821 -13044823.676 17419353.549 10 0 59225 27000.00000 0 15170708.682 -13845885.994 15141000.579 10 0 59225 27900.00000 0 16677497.451 -14657612.484 12568851.568 10 0 59225 28800.00000 0 17828270.532 -15422162.305 9752720.756 10 0 59225 29700.00000 0 18615549.444 -16080553.798 6747198.198 10 0 59225 30600.00000 0 19045001.400 -16575283.209 3610597.578 10 0 59225 31500.00000 0 19135001.880 -16852901.212 403827.702 10 0 59225 32400.00000 0 18915675.324 -16866437.860 -2810790.695 10 0 59225 33300.00000 0 18427454.034 -16577572.444 -5970739.697 10 0 59225 34200.00000 0 17719215.988 -15958455.098 -9014526.258 10 0 59225 35100.00000 0 16846080.305 -14993101.401 -11882887.057 10 0 59225 36000.00000 0 15866953.876 -13678299.124 -14519951.744 10 0 59225 36900.00000 0 14841933.414 -12023986.929 -16874340.828 10 0 59225 37800.00000 0 13829673.528 -10053087.208 -18900175.878 10 0 59225 38700.00000 0 12884832.814 -7800798.426 -20557981.549 10 0 59225 39600.00000 0 12055706.705 -5313375.435 -21815461.110 10 0 59225 40500.00000 0 11382147.696 -2646447.879 -22648130.009 10 0 59225 41400.00000 0 10893861.215 137053.615 -23039794.905 10 0 59225 42300.00000 0 10609149.284 2969277.073 -22982868.792 10 0 59225 43200.00000 0 10534154.892 5780035.539 -22478516.266 10 0 59225 44100.00000 0 10662638.643 8499492.392 -21536626.350 10 0 59225 45000.00000 0 10976296.507 11060833.677 -20175613.762 10 0 59225 45900.00000 0 11445604.533 13402816.324 -18422052.907 10 0 59225 46800.00000 0 12031153.952 15472086.411 -16310152.151 10 0 59225 47700.00000 0 12685419.389 17225171.392 -13881079.112 10 0 59225 48600.00000 0 13354884.546 18630064.105 -11182150.659 10 0 59225 49500.00000 0 13982434.665 19667333.690 -8265903.881 10 0 59225 50400.00000 0 14509913.912 20330718.442 -5189066.799 10 0 59225 51300.00000 0 14880739.005 20627177.620 -2011449.427 10 0 59225 52200.00000 0 15042458.193 20576401.973 1205222.728 10 0 59225 53100.00000 0 14949147.291 20209805.429 4398509.441 10 0 59225 54000.00000 0 14563541.531 19569042.158 7506467.230 10 0 59225 54900.00000 0 13858813.411 18704112.888 10468847.849 10 0 59225 55800.00000 0 12819921.771 17671141.255 13228260.583 10 0 59225 56700.00000 0 11444475.515 16529914.440 15731276.304 10 0 59225 57600.00000 0 9743075.674 15341291.661 17929452.521 10 0 59225 58500.00000 0 7739121.343 14164589.191 19780260.511 10 0 59225 59400.00000 0 5468087.149 13055051.011 21247897.642 10 0 59225 60300.00000 0 2976301.578 12061510.254 22303970.409 10 0 59225 61200.00000 0 319276.024 11224338.353 22928036.003 10 0 59225 62100.00000 0 -2440347.422 10573766.697 23107992.928 10 0 59225 63000.00000 0 -5235145.895 10128650.041 22840313.786 10 0 59225 63900.00000 0 -7995467.619 9895722.763 22130115.971 10 0 59225 64800.00000 0 -10652081.779 9869378.702 20991068.847 10 0 59225 65700.00000 0 -13138818.258 10031983.815 19445138.596 10 0 59225 66600.00000 0 -15395089.146 10354708.935 17522174.819 10 0 59225 67500.00000 0 -17368188.547 10798848.374 15259345.674 10 0 59225 68400.00000 0 -19015275.868 11317569.813 12700431.138 10 0 59225 69300.00000 0 -20304960.319 11858022.762 9894986.754 10 0 59225 70200.00000 0 -21218420.599 12363717.546 6897392.838 10 0 59225 71100.00000 0 -21750012.688 12777074.951 3765806.564 10 0 59225 72000.00000 0 -21907339.794 13042038.965 561036.694 10 0 59225 72900.00000 0 -21710781.020 13106641.841 -2654637.447 10 0 59225 73800.00000 0 -21192498.080 12925412.129 -5818679.723 10 0 59225 74700.00000 0 -20394961.532 12461522.567 -8869519.412 10 0 59225 75600.00000 0 -19369058.546 11688585.299 -11747757.431 10 0 59225 76500.00000 0 -18171862.126 10592016.646 -14397332.127 10 0 59225 77400.00000 0 -16864156.323 9169911.794 -16766620.833 10 0 59225 78300.00000 0 -15507822.413 7433390.517 -18809454.812 10 0 59225 79200.00000 0 -14163196.995 5406397.494 -20486026.980 10 0 59225 80100.00000 0 -12886514.164 3124964.097 -21763674.015 10 0 59225 81000.00000 0 -11727540.149 635961.310 -22617517.200 10 0 59225 81900.00000 0 -10727500.546 -2004604.941 -23030949.310 10 0 59225 82800.00000 0 -9917387.600 -4733685.275 -22995957.981 10 0 59225 83700.00000 0 -9316718.705 -7483578.180 -22513279.435 10 0 59225 84600.00000 0 -8932797.908 -10184521.544 -21592379.793 10 0 59225 85500.00000 0 -8760510.815 -12767376.277 -20251264.693 10 0 59226 0.00000 0 -8782660.479 -15166290.236 -18516121.374 10 0 59226 900.00000 0 -8970829.040 -17321231.470 -16420800.330 10 0 59226 1800.00000 0 -9286727.151 -19180285.777 -14006147.839 10 0 59226 2700.00000 0 -9683973.465 -20701622.328 -11319201.967 10 0 59226 3600.00000 0 -10110227.182 -21855047.517 -8412268.935 10 0 59226 4500.00000 0 -10509582.782 -22623082.027 -5341898.185 10 0 59226 5400.00000 0 -10825124.605 -23001518.083 -2167776.751 10 0 59226 6300.00000 0 -11001532.568 -22999435.042 1048435.024 10 0 59226 7200.00000 0 -10987628.362 -22638674.375 4244303.216 10 0 59226 8100.00000 0 -10738754.291 -21952797.834 7357831.834 10 0 59226 9000.00000 0 -10218884.192 -20985574.087 10328662.518 10 0 59226 9900.00000 0 -9402377.517 -19789058.629 13099239.118 10 0 59226 10800.00000 0 -8275302.739 -18421348.482 15615915.043 10 0 59226 11700.00000 0 -6836274.503 -16944106.304 17829982.596 10 0 59226 12600.00000 0 -5096769.264 -15419957.710 19698605.227 10 0 59226 13500.00000 0 -3080905.827 -13909870.362 21185635.782 10 0 59226 14400.00000 0 -824699.240 -12470623.655 22262306.111 10 0 59226 15300.00000 0 1625181.805 -11152473.741 22907775.759 10 0 59226 16200.00000 0 4213103.705 -9997110.248 23109530.128 10 0 59226 17100.00000 0 6876534.263 -9035988.794 22863621.085 10 0 59226 18000.00000 0 9548402.496 -8289107.943 22174745.631 10 0 59226 18900.00000 0 12159655.920 -7764280.866 21056161.042 10 0 59226 19800.00000 0 14641911.000 -7456931.689 19529437.572 10 0 59226 20700.00000 0 16930088.263 -7350424.972 17624052.609 10 0 59226 21600.00000 0 18964923.934 -7416914.687 15376832.981 10 0 59226 22500.00000 0 20695254.538 -7618677.553 12831254.816 10 0 59226 23400.00000 0 22079979.692 -7909875.290 10036613.250 10 0 59226 24300.00000 0 23089621.273 -8238672.179 7047076.778 10 0 59226 25200.00000 0 23707413.488 -8549619.082 3920643.627 10 0 59226 26100.00000 0 23929877.566 -8786203.414 718019.766 10 0 59226 27000.00000 0 23766856.275 -8893457.072 -2498559.888 10 0 59226 27900.00000 0 23241006.081 -8820511.308 -5666544.116 10 0 59226 28800.00000 0 22386767.646 -8522989.383 -8724287.702 10 0 59226 29700.00000 0 21248857.595 -7965134.218 -11612258.919 10 0 59226 30600.00000 0 19880344.875 -7121579.291 -14274207.778 10 0 59226 31500.00000 0 18340392.870 -5978685.963 -16658271.189 10 0 59226 32400.00000 0 16691762.708 -4535388.738 -18717992.593 10 0 59226 33300.00000 0 14998183.411 -2803510.880 -20413235.361 10 0 59226 34200.00000 0 13321700.216 -807535.356 -21710971.436 10 0 59226 35100.00000 0 11720113.169 1416160.767 -22585929.439 10 0 59226 36000.00000 0 10244614.118 3820577.552 -23021089.371 10 0 59226 36900.00000 0 8937721.649 6349816.599 -23008014.203 10 0 59226 37800.00000 0 7831600.592 8941187.015 -22547012.048 10 0 59226 38700.00000 0 6946836.250 11527605.299 -21647125.966 10 0 59226 39600.00000 0 6291714.071 14040188.899 -20325951.945 10 0 59226 40500.00000 0 5862033.898 16410935.239 -18609288.999 10 0 59226 41400.00000 0 5641465.213 18575374.442 -16530628.603 10 0 59226 42300.00000 0 5602426.873 20475084.987 -14130493.920 10 0 59226 43200.00000 0 5707452.579 22059967.588 -11455642.227 10 0 59226 44100.00000 0 5910982.824 23290182.752 -8558146.575 10 0 59226 45000.00000 0 6161506.160 24137671.711 -5494375.267 10 0 59226 45900.00000 0 6403957.930 24587198.159 -2323889.579 10 0 59226 46800.00000 0 6582273.975 24636868.435 891718.252 10 0 59226 47700.00000 0 6641990.546 24298109.773 4090023.613 10 0 59226 48600.00000 0 6532779.988 23595109.077 7208981.025 10 0 59226 49500.00000 0 6210814.784 22563737.194 10188124.951 10 0 59226 50400.00000 0 5640860.141 21250005.053 12969736.613 10 0 59226 51300.00000 0 4798006.943 19708117.369 15499954.583 10 0 59226 52200.00000 0 3668972.167 17998205.977 17729808.369 10 0 59226 53100.00000 0 2252912.149 16183837.848 19616155.773 10 0 59226 54000.00000 0 561714.326 14329401.642 21122507.025 10 0 59226 54900.00000 0 -1380245.287 12497481.237 22219720.951 10 0 59226 55800.00000 0 -3536869.555 10746324.839 22886560.735 10 0 59226 56700.00000 0 -5861601.848 9127513.934 23110099.587 10 0 59226 57600.00000 0 -8299130.819 7683927.899 22885969.120 10 0 59226 58500.00000 0 -10787469.149 6448087.845 22218445.943 10 0 59226 59400.00000 0 -13260321.713 5440947.614 21120374.750 10 0 59226 60300.00000 0 -15649646.698 4671181.492 19612928.836 10 0 59226 61200.00000 0 -17888304.821 4134997.899 17725211.845 10 0 59226 62100.00000 0 -19912687.953 3816486.636 15493707.260 10 0 59226 63000.00000 0 -21665218.758 3688485.185 12961584.953 10 0 59226 63900.00000 0 -23096617.660 3713928.053 10177876.925 10 0 59226 64800.00000 0 -24167842.669 3847622.752 7196536.925 10 0 59226 65700.00000 0 -24851620.614 4038377.926 4075401.178 10 0 59226 66600.00000 0 -25133504.964 4231393.994 875069.781 10 0 59226 67500.00000 0 -25012415.006 4370815.167 -2342269.819 10 0 59226 68400.00000 0 -24500632.720 4402334.360 -5514054.327 10 0 59226 69300.00000 0 -23623256.532 4275739.881 -8578566.957 10 0 59226 70200.00000 0 -22417134.151 3947294.823 -11476146.156 10 0 59226 71100.00000 0 -20929318.827 3381846.799 -14150356.266 10 0 59226 72000.00000 0 -19215113.773 2554577.028 -16549096.232 10 0 59226 72900.00000 0 -17335787.066 1452312.880 -18625623.839 10 0 59226 73800.00000 0 -15356053.340 74346.544 -20339474.709 10 0 59226 74700.00000 0 -13341428.613 -1567276.441 -21657257.387 10 0 59226 75600.00000 0 -11355569.753 -3448012.573 -22553308.660 10 0 59226 76500.00000 0 -9457710.651 -5531610.289 -23010196.045 10 0 59226 77400.00000 0 -7700302.895 -7771402.188 -23019057.611 10 0 59226 78300.00000 0 -6126959.800 -10112046.153 -22579772.622 10 0 59226 79200.00000 0 -4770789.606 -12491642.911 -21700959.878 10 0 59226 80100.00000 0 -3653187.012 -14844141.540 -20399804.137 10 0 59226 81000.00000 0 -2783132.594 -17101932.410 -18701714.335 10 0 59226 81900.00000 0 -2157028.071 -19198519.094 -16639820.698 10 0 59226 82800.00000 0 -1759072.650 -21071157.407 -14254321.035 10 0 59226 83700.00000 0 -1562162.752 -22663351.292 -11591689.459 10 0 59226 84600.00000 0 -1529275.245 -23927101.320 -8703763.487 10 0 59226 85500.00000 0 -1615274.048 -24824812.048 -5646727.957 10 0 59227 0.00000 0 -1769062.111 -25330779.084 -2480016.214 10 0 59227 900.00000 0 -1935986.229 -25432194.170 734849.895 10 0 59227 1800.00000 0 -2060392.468 -25129628.075 3935457.075 10 0 59227 2700.00000 0 -2088222.337 -24436970.812 7059712.362 10 0 59227 3600.00000 0 -1969540.629 -23380834.538 10047045.012 10 0 59227 4500.00000 0 -1660887.176 -21999444.184 12839575.529 10 0 59227 5400.00000 0 -1127353.685 -20341063.714 15383229.515 10 0 59227 6300.00000 0 -344298.108 -18462024.311 17628775.445 10 0 59227 7200.00000 0 701375.383 -16424437.200 19532767.093 10 0 59227 8100.00000 0 2010424.645 -14293686.403 21058373.510 10 0 59227 9000.00000 0 3570999.495 -12135805.309 22176081.682 10 0 59227 9900.00000 0 5358905.193 -10014845.473 22864259.352 10 0 59227 10800.00000 0 7338389.420 -7990345.863 23109568.155 10 0 59227 11700.00000 0 9463421.281 -6115006.432 22907219.774 10 0 59227 12600.00000 0 11679410.544 -4432661.401 22261070.457 10 0 59227 13500.00000 0 13925297.394 -2976635.231 21183552.069 10 0 59227 14400.00000 0 16135927.561 -1768548.576 19695440.450 10 0 59227 15300.00000 0 18244615.684 -817623.190 17825464.738 10 0 59227 16200.00000 0 20185791.708 -120514.249 15609764.074 10 0 59227 17100.00000 0 21897621.191 338323.179 13091200.808 10 0 59227 18000.00000 0 23324490.843 585748.777 10318542.265 10 0 59227 18900.00000 0 24419255.712 658569.827 7345525.611 10 0 59227 19800.00000 0 25145153.690 601749.560 4229822.942 10 0 59227 20700.00000 0 25477306.459 466266.389 1031926.078 10 0 59227 21600.00000 0 25403742.876 306714.538 -2186027.641 10 0 59227 22500.00000 0 24925900.657 178747.841 -5361465.636 10 0 59227 23400.00000 0 24058584.015 136475.591 -8432602.407 10 0 59227 24300.00000 0 22829377.923 229921.740 -11339649.405 10 0 59227 25200.00000 0 21277542.687 502656.393 -14025988.022 10 0 59227 26100.00000 0 19452434.678 989701.435 -16439281.778 10 0 59227 27000.00000 0 17411519.275 1715800.652 -18532505.137 10 0 59227 27900.00000 0 15218059.394 2694129.237 -20264868.059 10 0 59227 28800.00000 0 12938576.847 3925498.875 -21602617.543 10 0 59227 29700.00000 0 10640193.291 5398093.492 -22519700.117 10 0 59227 30600.00000 0 8387962.492 7087748.154 -22998272.100 10 0 59227 31500.00000 0 6242305.900 8958760.436 -23029047.602 10 0 59227 32400.00000 0 4256658.884 10965200.964 -22611477.591 10 0 59227 33300.00000 0 2475425.810 13052668.682 -21753756.763 10 0 59227 34200.00000 0 932329.005 15160417.412 -20472658.340 10 0 59227 35100.00000 0 -350780.339 17223764.701 -18793200.443 10 0 59227 36000.00000 0 -1364600.862 19176681.919 -16748150.875 10 0 59227 36900.00000 0 -2112522.533 20954456.934 -14377380.506 10 0 59227 37800.00000 0 -2610226.979 22496317.660 -11727078.344 10 0 59227 38700.00000 0 -2884765.540 23747906.540 -8848844.093 10 0 59227 39600.00000 0 -2973155.932 24663502.255 -5798676.583 10 0 59227 40500.00000 0 -2920558.715 25207895.890 -2635878.335 10 0 59227 41400.00000 0 -2778112.314 25357843.369 578101.838 10 0 59227 42300.00000 0 -2600519.510 25103033.969 3780865.073 10 0 59227 43200.00000 0 -2443488.509 24446535.222 6910273.925 10 0 59227 44100.00000 0 -2361137.482 23404696.515 9905655.391 10 0 59227 45000.00000 0 -2403472.558 22006516.356 12708972.097 10 0 59227 45900.00000 0 -2614045.810 20292500.666 15265939.362 10 0 59227 46800.00000 0 -3027891.846 18313060.326 17527067.134 10 0 59227 47700.00000 0 -3669829.647 16126515.226 19448607.448 10 0 59227 48600.00000 0 -4553200.846 13796787.878 20993390.222 10 0 59227 49500.00000 0 -5679097.426 11390882.108 22131532.378 10 0 59227 50400.00000 0 -7036111.394 8976250.849 22841007.670 10 0 59227 51300.00000 0 -8600617.532 6618161.230 23108067.251 10 0 59227 52200.00000 0 -10337578.411 4377164.919 22927503.538 10 0 59227 53100.00000 0 -12201839.315 2306777.359 22302752.614 10 0 59227 54000.00000 0 -14139860.693 451460.768 21245833.186 10 0 59227 54900.00000 0 -16091817.666 -1155006.614 19777122.766 10 0 59227 55800.00000 0 -17993980.724 -2490708.196 17924974.583 10 0 59227 56700.00000 0 -19781279.937 -3546265.376 15725181.506 10 0 59227 57600.00000 0 -21389946.947 -4324984.835 13220295.985 10 0 59227 58500.00000 0 -22760125.171 -4842470.763 10458817.913 10 0 59227 59400.00000 0 -23838339.426 -5125718.347 7494264.835 10 0 59227 60300.00000 0 -24579721.396 -5211726.492 4384141.509 10 0 59227 61200.00000 0 -24949896.975 -5145688.074 1188828.160 10 0 59227 62100.00000 0 -24926455.213 -4978834.123 -2029591.298 10 0 59227 63000.00000 0 -24499935.841 -4766023.228 -5208538.297 10 0 59227 63900.00000 0 -23674292.388 -4563178.644 -8286161.833 10 0 59227 64800.00000 0 -22466809.967 -4424682.412 -11202549.456 10 0 59227 65700.00000 0 -20907479.905 -4400837.945 -13900902.538 10 0 59227 66600.00000 0 -19037856.416 -4535509.858 -16328651.880 10 0 59227 67500.00000 0 -16909442.673 -4864042.458 -18438491.012 10 0 59227 68400.00000 0 -14581673.513 -5411546.526 -20189306.215 10 0 59227 69300.00000 0 -12119579.329 -6191628.306 -21546984.419 10 0 59227 70200.00000 0 -9591229.043 -7205615.833 -22485082.792 10 0 59227 71100.00000 0 -7065059.339 -8442316.454 -22985346.728 10 0 59227 72000.00000 0 -4607202.117 -9878316.760 -23038066.031 10 0 59227 72900.00000 0 -2278921.861 -11478813.083 -22642262.451 10 0 59227 73800.00000 0 -134269.842 -13198938.124 -21805705.117 10 0 59227 74700.00000 0 1781947.227 -14985528.179 -20544753.826 10 0 59227 75600.00000 0 3435800.051 -16779256.797 -18884033.625 10 0 59227 76500.00000 0 4805404.022 -18517045.153 -16855947.377 10 0 59227 77400.00000 0 5881573.525 -20134647.656 -14500036.317 10 0 59227 78300.00000 0 6667937.754 -21569304.010 -11862201.522 10 0 59227 79200.00000 0 7180515.268 -22762346.126 -8993802.043 10 0 59227 80100.00000 0 7446767.327 -23661650.254 -5950647.878 10 0 59227 81000.00000 0 7504172.049 -24223831.412 -2791908.047 10 0 59227 81900.00000 0 7398381.566 -24416088.131 421044.424 10 0 59227 82800.00000 0 7181041.645 -24217620.483 3625827.516 10 0 59227 83700.00000 0 6907367.297 -23620562.438 6760261.595 10 0 59227 84600.00000 0 6633577.800 -22630390.121 9763573.508 10 0 59227 85500.00000 0 6414299.996 -21265789.579 12577569.914 10 0 59228 0.00000 0 6300049.680 -19557990.282 15147757.483 10 0 59228 900.00000 0 6334897.518 -17549592.366 17424389.176 10 0 59228 1800.00000 0 6554416.419 -15292937.588 19363416.436 10 0 59228 2700.00000 0 6983998.213 -12848090.638 20927330.940 10 0 59228 3600.00000 0 7637608.011 -10280515.220 22085880.138 10 0 59228 4500.00000 0 8517029.745 -7658540.207 22816644.088 10 0 59228 5400.00000 0 9611634.064 -5050720.012 23105463.436 10 0 59228 6300.00000 0 10898679.035 -2523197.183 22946711.026 10 0 59228 7200.00000 0 12344131.926 -137175.158 22343402.200 10 0 59228 8100.00000 0 13903979.020 2053395.618 21307141.714 10 0 59228 9000.00000 0 15525970.267 4003823.657 19857907.747 10 0 59228 9900.00000 0 17151727.473 5680292.303 18023676.440 10 0 59228 10800.00000 0 18719129.550 7061019.300 15839893.050 10 0 59228 11700.00000 0 20164876.419 8136912.420 13348798.630 10 0 59228 12600.00000 0 21427125.299 8911694.042 10598623.977 10 0 59228 13500.00000 0 22448089.454 9401489.683 7642665.183 10 0 59228 14400.00000 0 23176490.487 9633897.674 4538257.652 10 0 59228 15300.00000 0 23569760.665 9646579.011 1345667.849 10 0 59228 16200.00000 0 23595901.831 9485426.780 -1873076.043 10 0 59228 17100.00000 0 23234921.319 9202392.533 -5055391.839 10 0 59228 18000.00000 0 22479782.936 8853061.808 -8139365.437 10 0 59228 18900.00000 0 21336831.302 8494081.974 -11064962.828 10 0 59228 19800.00000 0 19825670.077 8180552.145 -13775207.599 10 0 59228 20700.00000 0 17978497.758 7963486.746 -16217299.910 10 0 59228 21600.00000 0 15838927.821 7887461.379 -18343654.266 10 0 59228 22500.00000 0 13460341.824 7988541.929 -20112835.002 10 0 59228 23400.00000 0 10903844.051 8292585.790 -21490370.532 10 0 59228 24300.00000 0 8235903.092 8813988.248 -22449430.048 10 0 59228 25200.00000 0 5525778.925 9554927.999 -22971349.206 10 0 59228 26100.00000 0 2842843.154 10505144.476 -23045994.441 10 0 59228 27000.00000 0 253904.308 11642257.000 -22671958.911 10 0 59228 27900.00000 0 -2179350.264 12932612.680 -21856586.434 10 0 59228 28800.00000 0 -4402689.373 14332627.499 -20615823.216 10 0 59228 29700.00000 0 -6371353.016 15790564.073 -18973900.613 10 0 59228 30600.00000 0 -8051664.252 17248671.084 -16962855.480 10 0 59228 31500.00000 0 -9422171.800 18645593.994 -14621897.922 10 0 59228 32400.00000 0 -10474277.222 19918955.231 -11996639.249 10 0 59228 33300.00000 0 -11212322.364 21007994.908 -9138195.701 10 0 59228 34200.00000 0 -11653135.458 21856160.601 -6102186.066 10 0 59228 35100.00000 0 -11825057.225 22413537.015 -2947643.316 10 0 59228 36000.00000 0 -11766490.125 22639013.299 264137.975 10 0 59228 36900.00000 0 -11524033.843 22502096.946 3470795.343 10 0 59228 37800.00000 0 -11150287.352 21984298.348 6610109.718 10 0 59228 38700.00000 0 -10701411.580 21080028.270 9621210.520 10 0 59228 39600.00000 0 -10234556.375 19796971.076 12445751.122 10 0 59228 40500.00000 0 -9805260.733 18155918.501 15029032.243 10 0 59228 41400.00000 0 -9464935.876 16190071.240 17321052.151 10 0 59228 42300.00000 0 -9258536.901 13943837.658 19277464.112 10 0 59228 43200.00000 0 -9222520.404 11471179.475 20860423.714 10 0 59228 44100.00000 0 -9383173.367 8833572.746 22039310.848 10 0 59228 45000.00000 0 -9755382.917 6097668.033 22791313.488 10 0 59228 45900.00000 0 -10341898.273 3332745.660 23101863.056 10 0 59228 46800.00000 0 -11133115.860 608070.102 22964913.697 10 0 59228 47700.00000 0 -12107396.974 -2009748.367 22383060.450 10 0 59228 48600.00000 0 -13231905.532 -4459277.121 21367494.043 10 0 59228 49500.00000 0 -14463932.009 -6686566.634 19937792.742 10 0 59228 50400.00000 0 -15752649.510 -8647143.599 18121554.488 10 0 59228 51300.00000 0 -17041229.916 -10307610.003 15953875.304 10 0 59228 52200.00000 0 -18269232.843 -11646782.404 13476682.761 10 0 59228 53100.00000 0 -19375168.338 -12656324.287 10737936.077 10 0 59228 54000.00000 0 -20299126.525 -13340845.333 7790707.088 10 0 59228 54900.00000 0 -20985363.973 -13717463.387 4692158.800 10 0 59228 55800.00000 0 -21384737.737 -13814847.415 1502440.725 10 0 59228 56700.00000 0 -21456883.856 -13671781.586 -1716477.981 10 0 59228 57600.00000 0 -21172047.320 -13335311.023 -4902014.848 10 0 59228 58500.00000 0 -20512484.833 -12858547.639 -7992195.989 10 0 59228 59400.00000 0 -19473379.515 -12298229.203 -10926869.106 10 0 59228 60300.00000 0 -18063227.176 -11712135.524 -13648883.161 10 0 59228 61200.00000 0 -16303676.170 -11156471.927 -16105210.657 10 0 59228 62100.00000 0 -14228826.058 -10683331.757 -18247989.783 10 0 59228 63000.00000 0 -11884013.221 -10338346.376 -20035465.273 10 0 59228 63900.00000 0 -9324133.505 -10158623.092 -21432808.889 10 0 59228 64800.00000 0 -6611571.510 -10171059.202 -22412803.138 10 0 59228 65700.00000 0 -3813822.749 -10391104.208 -22956374.607 10 0 59228 66600.00000 0 -1000907.973 -10822023.062 -23052966.391 10 0 59228 67500.00000 0 1757312.533 -11454691.979 -22700742.472 10 0 59228 68400.00000 0 4393812.722 -12267935.570 -21906620.206 10 0 59228 69300.00000 0 6846951.236 -13229391.033 -20686130.559 10 0 59228 70200.00000 0 9062792.597 -14296862.758 -19063109.132 10 0 59228 71100.00000 0 10997102.971 -15420109.819 -17069224.350 10 0 59228 72000.00000 0 12616938.124 -16542990.530 -14743352.473 10 0 59228 72900.00000 0 13901758.538 -17605873.070 -12130812.079 10 0 59228 73800.00000 0 14844026.751 -18548210.032 -9282473.449 10 0 59228 74700.00000 0 15449263.712 -19311167.767 -6253760.886 10 0 59228 75600.00000 0 15735563.973 -19840199.342 -3103567.982 10 0 59228 76500.00000 0 15732592.211 -20087452.346 106892.432 10 0 59228 77400.00000 0 15480105.392 -20013910.028 3315280.637 10 0 59228 78300.00000 0 15026064.649 -19591175.663 6459341.104 10 0 59228 79200.00000 0 14424418.007 -18802825.306 9478108.527 10 0 59228 80100.00000 0 13732648.475 -17645272.344 12313085.349 10 0 59228 81000.00000 0 13009191.486 -16128107.900 14909368.269 10 0 59228 81900.00000 0 12310830.656 -14273902.939 17216702.526 10 0 59228 82800.00000 0 11690181.223 -12117480.433 19190444.320 10 0 59228 83700.00000 0 11193366.444 -9704687.648 20792413.886 10 0 59228 84600.00000 0 10857983.812 -7090719.088 21991623.885 10 0 59228 85500.00000 0 10711445.659 -4338058.988 22764870.155 99